SHI4366 LBSF-LTFM

Flight info

Callsign SHI4366
Flight time N/A
Altitude 35000
Route RUMEN3T/27 RUMEN N739 PDV P127 AYTEK
Aircraft B733/M-SDE2E3FHIRW/S

Departure

Time 2026-05-04 20:59
Airport Sofia Airport (LBSF)

Arrival

Time N/A
Airport İstanbul Airport (LTFM)
Time Latitude Longitude Altitude Speed Heading
2026-05-04 20:41 42.69001 23.40633 1760 ft 0 kts 198°
2026-05-04 20:50 42.69000 23.40633 1760 ft 0 kts 198°
2026-05-04 20:52 42.68990 23.40635 1760 ft 5 kts 156°
2026-05-04 20:52 42.69049 23.40711 1758 ft 12 kts 50°
2026-05-04 20:52 42.69053 23.40750 1758 ft 12 kts 93°
2026-05-04 20:52 42.69091 23.40966 1757 ft 17 kts 72°
2026-05-04 20:53 42.69146 23.41118 1753 ft 19 kts 27°
2026-05-04 20:53 42.69285 23.41165 1750 ft 21 kts 11°
2026-05-04 20:53 42.69430 23.41202 1749 ft 3 kts
2026-05-04 20:53 42.69441 23.41204 1749 ft 0 kts
2026-05-04 20:54 42.69443 23.41205 1749 ft 0 kts 17°
2026-05-04 20:54 42.69447 23.41219 1749 ft 2 kts 63°
2026-05-04 20:54 42.69463 23.41259 1749 ft 8 kts 62°
2026-05-04 20:54 42.69476 23.41361 1748 ft 14 kts 94°
2026-05-04 20:55 42.69467 23.41536 1746 ft 20 kts 93°
2026-05-04 20:55 42.69455 23.41734 1745 ft 21 kts 95°
2026-05-04 20:55 42.69441 23.41959 1744 ft 26 kts 95°
2026-05-04 20:55 42.69425 23.42229 1746 ft 29 kts 94°
2026-05-04 20:56 42.69414 23.42416 1745 ft 30 kts 95°
2026-05-04 20:56 42.69398 23.42710 1741 ft 31 kts 94°
2026-05-04 20:56 42.69375 23.43095 1743 ft 30 kts 95°
2026-05-04 20:56 42.69356 23.43378 1747 ft 29 kts 94°
2026-05-04 20:57 42.69340 23.43649 1749 ft 28 kts 93°
2026-05-04 20:57 42.69333 23.43798 1749 ft 17 kts 95°
2026-05-04 20:57 42.69368 23.43939 1749 ft 11 kts 21°
2026-05-04 20:57 42.69458 23.43953 1749 ft 14 kts
2026-05-04 20:58 42.69517 23.43871 1749 ft 15 kts 275°
2026-05-04 20:58 42.69530 23.43653 1748 ft 42 kts 275°
2026-05-04 20:58 42.69573 23.42919 1738 ft 115 kts 274°
2026-05-04 20:58 42.69656 23.41515 1777 ft 168 kts 274°
2026-05-04 20:59 42.69748 23.39974 2508 ft 163 kts 277°
2026-05-04 20:59 42.69810 23.39481 2717 ft 165 kts 284°
2026-05-04 20:59 42.71063 23.37639 3222 ft 195 kts 349°
2026-05-04 20:59 42.72513 23.37892 3535 ft 222 kts 14°
2026-05-04 21:00 42.74038 23.37858 4268 ft 227 kts 343°
2026-05-04 21:00 42.75037 23.37443 4882 ft 227 kts 344°